Pagina principale
METAR-TAF:

METAR-TAF

Aeroporti :

Aeroporto di Rieti

Rieti, Italia

latitudine: 42-25N, longitudine: 012-51E, altezza: 389 m

Osservazione

Il bollettino è stato emesso 31 minuti fa, alle 15:04 UTC
Vento 8 kt da sud/sud-est, variando fra est/sud-est e sud
Temperature 19°C
Umidità 68%
Pressione 1004 hPa
Visibilità: 9000 m
Nubi sparse ad un'altezza di 3500 ft, Cumulo congesto.

METAR: LIQN 271504Z 16008KT 120V190 9000 SCT035TCU 19/13 Q1004 RERA

Ora: 17:35 (15:35 UTC)


TAF: mancante

Osservazioni e previsioni meteorologiche di più di 4000 aeroporti (messaggi METAR e TAF).

Le stazioni disponibili sono rappresentate dai dischi gialli e rossi sulla carta.

Puntare il mouse per vedere il nome della stazione.

Clicca sopra per visualizzare le osservazioni e previsioni meteorologiche.

Per cambiare la mappa : fare clic sui pulsanti verdi con una croce nera per ingrandire, il pulsante verde con un trattino per diminuire, o sulla freccia verde per le mappe adiacenti.


METAR-TAF: